Theta_e
331 328 323 321 324 327 330 331 327 326 327 326 326 326 325 326 329 331 332 331 331 332 333 333 332 328 326 326 326 329 330 329 330 330 330 329 328 328 329 329 328 328 327 326 327 328 326 323 321 322 324 324 321 319 318 319 319 320 321 323 324 326 330 333 334 333 332 331 332 333 333 334 337 338 338 337 337 336 337 340 342 343 344 345 346
330 326 325 323 325 327 332 335 333 332 332 330 329 328 327 330 332 331 332 333 333 334 333 332 331 330 329 326 324 326 328 330 332 332 331 331 328 327 328 329 329 328 327 326 325 326 326 323 322 324 325 321 319 319 318 319 320 321 322 323 324 325 327 329 331 332 332 331 331 332 332 334 336 337 338 338 337 338 338 339 342 342 341 342 345
335 334 334 334 334 334 334 334 333 333 334 332 332 333 332 333 331 329 331 332 332 332 331 331 331 331 331 330 328 327 329 332 333 332 330 330 328 327 329 330 329 329 328 326 325 326 325 324 325 327 325 320 318 319 318 320 321 322 322 323 324 324 325 326 328 330 331 332 332 332 331 333 334 336 337 337 337 338 339 338 340 341 339 341 345
340 341 340 340 339 334 330 329 330 333 335 334 334 335 333 332 331 331 331 330 330 330 330 330 330 329 330 331 330 328 330 332 332 330 328 328 327 327 329 330 330 329 328 327 327 326 325 325 328 329 325 320 319 318 318 319 321 322 323 323 322 323 323 324 326 328 330 331 332 332 332 332 333 334 336 337 338 338 337 338 339 339 339 341 343
342 342 340 339 338 334 331 331 332 334 335 335 335 333 332 331 330 329 329 329 330 331 330 330 329 328 329 330 330 329 330 332 331 328 327 326 326 326 327 329 330 330 329 329 329 327 325 326 329 329 325 321 319 318 317 318 319 321 322 322 323 323 322 323 325 327 330 331 332 333 333 333 333 333 335 338 340 339 338 339 340 340 340 341 342
339 340 341 341 340 338 336 333 334 337 337 335 333 331 330 330 330 330 331 331 331 330 330 329 328 329 329 329 330 330 330 332 331 329 327 327 326 324 322 325 327 328 329 329 329 327 326 327 329 328 327 323 319 318 318 317 317 319 320 322 323 324 323 323 324 326 329 331 332 332 333 333 334 335 335 337 339 340 340 340 340 341 342 342 342
336 337 339 340 340 340 338 334 334 337 335 333 331 330 330 330 330 330 330 329 329 329 329 329 329 329 329 329 330 330 330 331 331 330 329 327 328 326 324 324 325 325 326 326 325 326 327 328 328 328 327 324 319 318 318 317 317 317 320 321 323 324 324 323 323 326 328 330 331 332 333 334 335 337 337 337 338 339 339 340 342 341 341 342 342
335 336 336 336 336 336 335 334 334 333 329 327 326 325 326 326 327 328 328 329 330 330 330 330 329 328 328 328 329 329 330 331 331 331 331 329 329 329 327 324 323 323 323 324 325 326 326 327 328 328 327 325 321 319 318 317 317 317 319 321 322 324 324 323 323 325 327 328 330 332 333 333 335 336 337 337 338 338 337 339 340 340 340 342 342
331 332 331 329 328 326 324 325 327 326 323 321 321 322 324 325 327 329 330 330 331 331 330 329 328 326 326 327 328 329 330 331 331 332 332 330 330 328 324 322 321 321 321 323 324 325 326 329 329 328 328 325 323 322 320 319 319 320 321 322 323 324 324 322 322 324 326 327 329 331 332 333 334 335 336 337 337 337 336 336 338 338 339 341 343
332 329 325 322 322 320 320 320 321 321 321 320 320 322 324 327 329 329 328 329 329 329 329 329 329 328 328 328 329 330 330 331 332 332 331 331 330 327 323 321 322 320 320 322 324 325 326 328 328 328 329 326 322 322 322 322 323 322 322 323 323 324 323 322 322 323 325 326 328 330 331 332 334 335 336 337 337 337 337 337 337 338 339 341 342
334 330 324 321 322 321 320 321 321 321 321 320 321 321 324 327 328 327 326 327 328 329 329 330 330 330 329 329 330 331 331 331 332 331 331 330 329 327 324 322 322 320 320 322 324 324 324 324 325 326 328 327 323 322 323 324 325 323 322 323 323 324 323 321 321 323 324 325 327 328 330 332 334 334 335 337 338 338 338 337 338 338 339 340 341
336 329 323 321 322 322 321 321 322 322 322 321 320 322 325 327 326 325 325 327 329 329 329 330 330 330 330 330 330 330 330 330 330 330 330 329 328 328 325 323 322 321 320 322 323 324 323 323 323 323 325 326 323 322 323 324 324 323 321 320 322 324 322 321 322 323 325 326 327 328 329 331 332 333 333 335 337 338 338 337 337 337 338 339 341
336 327 322 322 323 322 322 322 322 322 322 321 321 322 324 326 327 327 326 327 329 329 329 330 330 330 329 329 329 329 328 329 329 329 329 329 329 328 325 323 322 321 321 322 323 323 322 322 322 323 324 325 323 322 323 323 322 322 319 318 321 323 322 321 321 323 324 325 326 327 328 329 331 332 333 333 336 338 338 337 337 338 338 339 340
336 328 323 322 323 322 322 322 322 322 323 323 322 323 324 326 328 328 327 327 329 329 329 330 330 330 328 328 328 328 328 328 328 328 329 329 329 327 324 322 323 322 322 321 322 322 322 323 323 323 324 324 322 322 323 322 322 322 320 320 322 323 321 321 321 323 324 325 326 326 327 327 329 331 333 332 334 337 338 338 338 339 339 339 339
338 335 328 324 323 323 322 322 322 323 324 325 324 325 326 328 329 329 328 328 329 330 330 330 330 329 328 328 328 328 328 328 327 327 328 328 328 327 325 323 323 323 322 322 321 322 323 323 323 321 321 322 322 321 321 322 322 322 322 322 323 322 320 321 321 322 324 325 325 326 326 327 328 329 331 333 333 334 336 339 339 339 340 339 339
341 340 333 326 324 324 323 323 323 323 325 326 327 327 329 330 329 329 330 331 330 330 329 330 330 329 328 327 327 328 328 328 327 326 326 327 328 328 325 323 322 323 323 322 322 322 321 322 322 321 320 321 320 320 321 322 322 322 322 323 322 320 319 320 320 322 323 324 325 326 327 328 329 329 330 333 334 334 335 337 339 339 340 340 340
341 339 334 327 325 325 324 324 325 325 326 328 328 330 332 332 329 330 332 332 331 330 330 330 330 329 329 328 328 328 327 327 326 325 325 325 327 327 324 322 321 322 323 322 322 321 321 322 322 322 321 320 320 320 322 322 321 322 323 323 321 320 319 319 319 321 322 323 324 325 327 329 330 330 330 332 334 334 334 336 337 338 339 340 340
336 335 332 328 327 327 328 327 328 329 330 330 330 331 333 333 331 332 333 332 331 330 330 330 329 329 329 329 329 328 327 326 324 324 324 325 326 327 324 322 321 321 322 323 322 323 322 321 321 323 322 320 319 321 322 321 322 323 323 322 320 319 319 319 319 320 322 323 324 325 328 330 331 332 332 331 333 333 334 335 335 336 338 340 340
335 333 332 331 330 329 331 331 331 332 334 334 333 332 333 333 333 333 333 332 331 330 329 329 328 328 328 328 328 329 329 327 325 325 325 325 327 328 325 322 321 321 322 323 323 323 322 320 320 321 321 319 319 321 321 321 323 324 323 321 319 319 320 320 320 320 322 325 325 326 327 329 332 334 333 332 332 333 334 334 333 335 338 341 340
338 337 338 337 334 332 332 333 334 334 335 336 335 333 333 333 333 332 332 332 331 330 329 328 328 328 328 328 328 329 329 327 325 325 324 324 327 328 325 322 321 321 321 322 323 323 323 321 319 318 318 318 320 321 322 322 324 324 323 321 320 320 320 319 319 320 323 324 324 325 326 328 331 334 335 333 333 333 334 334 333 333 337 340 340
340 340 341 340 339 336 334 334 335 335 335 336 336 335 334 334 333 333 332 332 331 331 330 328 329 329 328 328 328 329 328 326 325 325 324 325 327 326 323 322 321 320 321 321 322 323 323 321 319 317 317 319 321 322 322 323 325 324 323 321 320 321 321 318 317 320 322 324 324 324 325 326 329 332 335 335 334 334 334 334 333 333 336 339 339
341 341 342 341 340 339 338 336 336 336 336 336 335 334 334 334 334 333 332 332 332 331 330 330 329 329 328 328 329 329 328 326 326 325 325 326 326 325 324 322 321 321 321 321 322 323 322 321 319 316 317 321 323 323 322 322 324 325 323 321 320 321 321 319 318 319 320 324 325 325 325 326 327 329 333 335 336 335 335 335 334 333 335 338 338
342 341 341 340 340 339 338 338 338 337 337 336 335 335 334 334 333 332 332 333 332 330 330 330 330 330 329 327 327 328 327 325 326 325 325 326 327 326 324 323 321 321 321 321 322 323 322 321 319 317 319 323 325 323 321 322 324 324 324 322 321 321 321 321 320 319 318 321 325 325 325 324 325 327 330 333 336 337 337 336 335 334 334 336 337
341 343 341 340 341 340 339 339 338 338 338 337 336 335 335 334 334 333 333 332 330 329 330 331 330 330 328 325 325 327 327 326 325 325 326 327 327 326 324 322 322 321 321 320 322 323 322 321 319 319 322 325 325 323 322 323 324 324 324 323 322 321 321 321 320 319 318 320 322 323 323 323 322 324 328 331 335 337 338 337 337 336 334 334 334
337 342 342 341 341 341 341 340 339 339 338 337 336 336 335 335 334 333 332 332 330 328 328 330 331 330 327 325 326 327 327 325 326 326 326 326 327 326 323 321 321 321 320 321 322 322 322 321 320 321 324 325 325 324 323 323 323 323 323 324 323 321 321 320 320 319 318 319 320 320 321 322 321 321 325 330 334 336 338 339 339 338 337 336 334
335 338 340 341 342 342 342 341 340 339 338 337 336 336 335 334 334 333 332 331 328 325 326 329 330 326 324 325 327 327 326 325 325 325 325 326 325 323 320 319 319 320 320 321 322 322 321 321 321 323 325 325 324 324 323 322 322 322 322 323 324 322 321 320 320 319 319 318 318 318 319 320 320 319 323 329 334 335 337 338 339 339 339 338 337
337 337 338 340 341 342 341 341 339 337 335 334 335 335 335 335 333 332 332 331 328 326 327 329 328 325 325 327 327 326 326 325 325 325 325 324 322 320 318 318 318 319 319 320 321 321 321 321 323 324 323 323 323 324 323 322 322 322 322 322 323 324 322 321 321 321 319 318 317 317 317 318 319 319 320 324 330 334 337 337 338 340 339 339 339
335 335 337 338 340 339 338 338 338 336 334 334 334 333 334 334 332 331 331 329 327 327 328 328 327 326 327 327 326 326 327 327 326 325 324 322 320 318 317 318 318 318 319 320 321 321 321 322 323 323 323 323 323 323 322 322 321 321 321 322 323 324 324 323 322 322 320 318 317 317 316 317 319 320 320 320 323 329 335 338 339 339 339 338 339
335 336 336 338 338 338 337 336 336 335 334 333 331 328 329 331 331 330 330 329 328 328 328 327 327 327 326 326 326 326 326 325 324 323 322 321 319 317 317 317 317 318 319 319 320 321 321 323 323 323 322 322 322 322 321 322 322 322 322 323 323 323 324 324 323 322 321 320 319 318 316 315 317 320 321 321 320 322 327 333 337 340 340 338 338
332 333 335 336 336 335 335 334 334 333 332 331 329 329 330 332 332 331 330 329 329 328 326 326 327 327 325 324 324 323 322 322 322 322 321 320 318 316 316 316 316 317 318 319 321 322 322 323 323 322 321 321 321 321 321 321 321 322 322 322 322 321 322 323 323 323 322 321 320 319 317 315 316 318 320 321 321 319 320 324 330 336 338 339 339
325 329 333 333 332 332 332 332 332 331 329 329 329 330 330 330 330 330 330 328 328 327 327 328 329 327 325 323 322 321 321 321 321 321 320 318 316 315 314 314 315 316 318 320 322 322 323 322 321 320 320 320 320 320 320 320 320 320 320 320 320 320 320 321 323 323 323 321 320 320 318 316 316 317 318 319 321 321 318 318 322 326 329 333 336
322 329 332 331 331 331 331 331 331 331 331 329 329 328 328 328 328 327 327 327 327 327 327 328 328 326 325 323 321 321 321 321 321 321 319 316 313 312 312 314 316 317 319 321 322 321 321 320 319 319 319 319 319 319 319 319 319 319 319 319 319 319 320 320 322 323 323 321 320 321 320 318 316 317 317 317 320 322 321 318 318 320 321 324 327
322 327 329 329 330 331 331 331 331 332 331 330 329 329 328 328 327 326 326 326 326 326 326 326 325 324 323 321 321 321 321 321 321 319 315 312 311 310 313 316 318 317 318 320 320 319 319 318 318 318 318 318 318 318 318 318 318 318 318 318 318 318 319 320 321 321 322 322 321 322 322 320 317 317 316 316 318 321 322 321 318 317 318 320 321
322 324 326 327 328 329 329 330 330 330 330 329 329 329 329 328 328 327 326 325 325 325 325 325 323 322 322 321 321 320 320 321 320 317 313 310 310 311 314 318 319 318 318 318 318 318 317 316 317 317 317 317 317 317 317 317 317 317 317 317 317 317 318 319 319 320 321 321 322 322 322 321 320 319 317 316 316 318 320 322 321 318 317 317 318
323 324 326 328 328 328 328 329 328 328 328 328 328 329 329 329 328 328 326 325 325 325 325 324 323 322 321 321 320 320 319 319 317 314 311 310 311 313 316 319 319 318 317 317 317 316 315 315 315 316 315 316 316 316 316 316 316 316 317 316 316 316 316 317 318 319 319 320 321 322 322 322 322 321 319 317 316 316 317 320 322 321 319 316 316
327 327 328 328 328 328 328 329 328 328 328 328 328 328 328 327 325 326 326 326 325 325 325 323 322 321 320 319 319 318 316 314 313 312 311 311 312 314 315 317 317 317 316 315 315 314 313 313 314 314 314 314 314 314 314 314 315 315 315 315 315 315 315 316 317 317 318 319 319 320 321 321 322 322 321 319 318 317 317 318 320 322 321 318 316
328 329 328 328 327 327 328 329 329 329 328 327 326 327 326 324 322 323 324 325 325 324 323 322 321 320 320 319 318 316 314 313 313 313 313 312 313 314 314 314 315 314 313 313 313 312 312 312 312 312 312 312 311 311 311 312 312 312 312 312 313 313 314 314 315 316 317 318 318 318 320 320 321 321 321 320 320 321 320 317 317 319 322 320 318
327 328 327 327 327 326 326 327 327 327 326 325 324 325 325 324 323 323 324 324 324 324 323 322 321 320 320 319 318 316 314 313 314 314 314 313 312 312 312 312 312 311 311 311 311 311 310 310 310 310 311 311 310 310 310 310 310 310 310 310 310 310 311 312 312 313 314 316 317 317 318 318 319 320 320 319 319 321 322 318 316 317 319 320 321
328 328 327 326 325 325 325 325 325 324 323 323 322 323 325 324 323 322 322 322 322 322 322 320 319 318 318 317 316 316 314 313 314 314 314 312 311 311 311 311 310 309 310 310 311 309 308 308 309 310 310 310 310 309 308 309 309 309 309 308 308 308 309 309 310 311 311 312 313 315 315 316 317 318 319 318 317 319 322 321 320 319 318 319 322
328 328 327 326 325 325 325 325 324 323 323 322 322 323 323 323 322 321 321 321 320 320 319 318 317 316 315 314 315 315 313 312 313 313 312 311 310 309 309 309 310 309 309 309 309 309 308 308 308 308 308 308 308 308 308 307 307 307 307 307 306 306 306 306 307 308 308 309 310 311 312 313 314 315 317 317 316 317 319 320 321 322 320 320 322
327 327 326 325 324 324 324 324 324 323 323 323 323 323 322 322 322 321 320 319 318 317 316 316 315 314 313 313 313 313 312 311 312 312 310 309 309 308 307 307 308 308 308 307 307 307 307 307 307 306 306 306 306 306 306 306 306 306 306 305 305 304 304 304 304 304 306 307 308 308 309 310 311 312 313 314 315 315 317 318 320 321 322 322 323
326 325 324 324 324 324 324 324 323 323 323 322 322 322 321 320 319 319 318 317 317 317 316 315 314 313 312 311 310 311 311 311 310 310 309 308 307 307 306 306 306 307 307 307 306 306 305 306 305 305 305 305 305 305 305 305 304 304 304 303 302 302 302 302 302 302 303 303 305 306 306 307 308 308 310 311 312 313 314 315 317 318 320 321 322
325 324 324 323 323 323 323 323 322 322 322 321 321 320 319 319 318 318 317 317 317 317 315 314 313 312 311 310 308 308 309 309 308 308 308 307 306 306 305 305 305 307 306 306 305 304 304 304 304 304 304 304 303 303 303 303 302 301 300 300 299 299 299 299 299 300 300 301 301 302 302 302 303 304 306 308 309 310 311 312 313 314 316 318 320
324 323 323 323 323 322 322 321 321 321 320 320 319 318 318 318 318 317 317 316 315 314 313 313 312 311 310 309 308 306 307 308 308 307 307 306 306 305 304 305 305 305 305 304 304 303 302 302 302 302 303 302 301 301 300 299 299 298 297 296 296 296 296 296 297 297 297 298 298 299 299 299 299 299 301 303 305 306 307 308 309 310 312 314 316
323 322 322 321 321 321 320 320 319 318 318 317 316 315 315 315 315 313 312 312 312 312 312 312 311 310 309 309 308 308 307 307 307 306 306 305 305 304 304 304 304 304 304 304 303 302 301 300 300 301 300 299 298 298 298 296 295 294 294 294 293 293 293 294 294 294 295 296 296 297 298 298 296 296 296 298 299 300 302 303 304 306 307 309 312
321 321 320 319 320 320 319 318 318 317 316 315 315 314 313 313 313 312 311 311 312 312 312 311 311 310 309 308 308 307 306 306 306 306 305 304 304 304 304 304 304 303 303 303 302 301 300 299 298 298 298 297 296 295 294 293 293 293 292 292 293 293 293 293 293 293 293 294 295 296 297 296 295 294 294 296 295 296 298 300 300 301 302 304 307
319 319 319 318 318 318 318 317 317 316 315 314 314 314 313 313 313 313 312 312 311 311 311 311 310 309 309 308 307 306 306 306 306 305 304 304 304 304 304 304 304 303 302 301 300 299 299 298 297 296 295 293 293 293 292 292 292 293 293 292 293 293 293 293 293 293 294 294 295 295 296 296 295 293 294 295 294 294 296 298 299 298 298 299 302
317 317 316 316 316 316 316 315 315 314 314 313 313 313 312 312 312 312 312 311 310 309 309 310 309 309 308 308 307 306 306 306 306 305 305 304 304 303 304 304 303 303 302 300 298 297 296 296 296 296 295 294 293 292 292 292 293 292 293 293 293 293 293 293 293 293 294 294 295 295 296 296 295 294 294 295 295 295 296 298 300 300 298 297 298
316 315 315 315 315 315 315 314 313 313 313 313 313 312 312 311 311 311 310 310 309 309 309 309 309 308 308 307 307 307 306 306 306 305 305 304 304 303 302 301 300 301 301 300 298 297 295 294 293 293 294 294 295 294 292 292 292 292 292 292 293 293 293 293 293 293 293 293 294 295 295 296 295 294 294 295 295 295 296 299 301 301 300 298 297
315 315 315 315 314 314 314 313 312 312 312 312 312 312 311 310 310 309 309 309 309 309 308 308 308 307 307 307 306 306 305 305 305 305 304 304 304 303 301 298 299 300 300 299 297 297 296 295 294 293 293 294 295 294 293 292 292 292 292 292 292 292 292 292 293 293 293 293 294 294 294 295 295 294 294 294 295 295 296 298 300 300 300 300 299
314 313 313 313 313 313 313 313 312 312 311 311 310 310 309 309 309 308 308 308 308 308 307 307 307 307 306 306 306 305 305 305 304 304 304 303 303 302 300 298 298 298 299 298 297 297 297 296 295 294 294 295 295 294 293 292 292 292 292 292 292 292 292 292 292 293 293 293 293 294 294 294 294 294 293 294 294 295 296 298 299 299 299 300 300
Wind_Speed
15 13 10 9 9 10 11 11 10 8 7 7 8 8 7 7 9 11 11 13 15 15 13 13 16 18 17 16 15 15 15 15 15 15 14 14 15 15 14 15 15 16 16 16 15 14 12 13 15 16 17 18 22 27 30 30 29 28 28 28 29 29 31 33 36 40 41 39 39 39 37 33 30 29 29 29 31 32 33 34 38 40 39 38 40
15 11 10 9 8 9 9 9 9 8 8 8 8 8 8 8 9 12 12 12 14 15 16 17 17 18 18 17 17 16 15 15 15 15 15 16 16 16 15 16 16 17 17 17 17 14 13 14 15 15 16 19 24 28 31 30 28 28 28 29 30 29 29 31 35 39 42 42 40 39 37 35 34 33 32 31 31 31 33 34 35 36 35 36 38
14 10 10 10 9 9 9 10 9 9 9 8 7 7 8 9 10 12 11 11 13 15 17 17 17 19 20 19 20 18 16 15 15 16 16 17 18 17 17 17 18 18 18 19 18 15 15 16 15 14 16 20 24 28 31 30 29 29 30 30 31 31 30 30 32 35 39 42 41 40 39 37 36 35 34 34 34 33 34 35 34 34 34 35 36
16 12 10 10 9 9 9 9 9 9 8 7 7 8 8 9 10 10 10 11 13 15 15 14 15 18 20 21 22 22 19 17 17 18 18 18 18 18 18 19 20 20 19 19 18 16 16 16 15 15 17 19 23 27 29 31 31 30 31 32 32 33 33 32 31 31 34 39 40 38 39 39 38 36 34 34 34 35 36 37 36 36 37 37 36
16 13 11 11 10 9 8 8 8 8 7 7 7 9 9 11 12 11 10 12 13 13 13 14 15 16 18 21 24 24 20 17 17 17 17 17 18 18 19 19 20 20 20 19 18 18 17 16 15 17 18 18 21 24 27 30 32 31 31 33 33 35 35 34 31 28 30 35 39 38 37 37 37 36 34 33 33 33 35 37 38 39 40 40 39
14 12 11 11 11 10 9 9 9 9 9 8 9 10 10 12 11 10 12 13 14 14 15 16 16 16 17 20 23 23 20 19 18 16 16 17 18 20 20 20 20 21 21 20 19 19 18 16 16 18 19 18 19 21 24 29 32 33 33 33 35 37 39 37 32 28 27 31 36 37 37 35 35 35 34 35 34 33 33 36 38 40 42 42 42
15 13 11 11 12 13 11 10 10 10 10 10 10 11 11 11 11 13 15 16 16 16 15 15 15 16 18 19 21 20 19 20 20 17 17 18 19 20 21 21 21 21 22 22 21 19 19 18 17 18 18 18 19 20 23 27 31 33 34 35 37 39 41 41 35 29 27 28 31 34 35 33 33 33 33 33 35 34 34 36 38 40 41 41 41
16 16 15 14 14 15 13 13 12 11 10 10 11 12 12 13 13 14 14 13 13 13 14 15 16 18 20 21 20 19 18 20 20 18 17 18 19 20 20 21 21 22 23 23 21 19 20 20 18 17 19 20 20 21 23 26 29 33 34 35 37 39 41 42 37 30 27 27 30 32 33 33 33 34 34 34 36 37 38 39 40 41 40 39 38
18 19 19 16 15 14 12 13 13 11 10 10 10 11 11 12 12 12 13 13 13 14 15 16 18 18 18 18 17 17 18 20 19 17 17 19 19 18 19 20 20 21 22 22 21 20 20 20 18 17 21 23 23 24 25 26 29 32 34 34 36 38 40 42 38 32 29 27 28 30 31 32 33 34 36 37 38 39 39 40 41 41 40 38 37
19 20 18 13 11 11 11 12 11 10 10 9 10 11 11 11 12 13 14 13 14 14 15 16 17 16 16 16 16 16 18 19 18 17 18 18 18 18 19 20 20 20 20 21 21 21 21 21 21 20 22 25 25 25 27 27 28 31 33 34 35 37 39 41 38 34 31 29 27 27 30 32 33 33 34 35 35 36 37 38 41 41 39 38 37
22 20 16 11 10 10 10 11 10 10 9 9 9 10 11 11 12 14 14 14 14 14 14 15 16 16 16 15 15 16 17 17 17 18 18 18 18 19 20 21 21 20 20 20 20 21 21 23 23 23 23 24 25 26 26 26 27 29 32 33 34 35 37 40 39 35 32 31 28 26 28 31 33 33 33 33 33 34 36 36 38 38 38 38 37
24 20 16 14 13 12 11 11 10 10 9 9 9 10 11 13 14 14 14 14 14 13 14 15 16 16 15 15 15 16 17 17 17 17 18 18 19 20 21 21 20 20 19 19 20 21 22 24 24 24 24 23 25 26 26 26 27 27 30 33 34 34 35 37 38 35 32 30 29 28 27 29 32 34 33 33 33 33 36 36 36 38 39 38 38
24 21 17 16 15 13 13 13 12 11 9 9 10 10 12 13 14 14 13 13 14 14 14 15 15 15 15 15 15 16 16 16 16 16 17 17 19 21 21 20 20 20 19 19 20 21 23 23 23 23 23 22 24 25 25 26 28 27 29 33 34 35 35 35 35 33 30 29 29 30 29 28 31 34 33 34 33 31 33 36 36 38 40 40 40
24 21 19 18 16 15 15 15 14 12 10 10 11 11 13 14 15 15 14 13 14 14 13 14 16 16 14 14 14 14 14 15 16 16 16 17 19 21 20 19 20 20 19 18 20 21 22 23 23 22 21 21 23 23 23 26 28 28 30 33 34 36 37 37 36 34 31 29 30 33 33 30 30 33 32 33 34 33 32 34 36 37 39 40 39
25 23 21 19 18 17 16 16 15 13 12 12 12 13 14 14 15 16 16 15 14 14 14 15 16 15 13 13 14 14 15 16 17 17 16 15 18 20 20 19 20 19 18 19 20 21 21 21 22 21 20 21 22 21 22 25 27 29 30 31 34 36 37 37 37 37 34 32 32 32 33 32 32 34 34 31 32 35 33 32 35 36 36 37 38
25 24 22 21 19 18 18 17 17 15 14 14 14 15 15 15 15 16 17 17 16 15 14 15 15 14 13 14 15 16 16 18 19 18 17 16 16 17 19 20 20 19 19 19 19 20 21 22 22 20 19 20 19 19 21 24 26 29 30 30 33 35 36 37 38 36 33 32 31 30 30 30 31 35 38 34 31 33 34 34 35 33 32 34 37
26 25 23 23 21 20 19 19 18 17 16 16 16 16 16 16 16 16 18 19 17 15 14 14 15 15 13 13 16 17 17 18 20 19 19 18 16 15 18 20 20 20 19 18 19 20 22 22 21 20 20 20 19 20 22 24 26 28 28 28 31 34 36 38 38 36 32 29 30 30 28 28 28 32 37 38 36 33 34 37 38 33 31 33 36
26 25 25 24 23 21 21 20 19 19 19 19 19 18 18 18 17 16 18 19 17 15 15 15 15 14 13 13 16 18 17 18 20 19 18 17 15 15 18 20 21 20 19 19 20 21 22 22 20 19 21 20 20 22 23 24 25 25 25 26 29 32 34 37 39 38 35 32 33 32 27 24 25 28 32 37 40 38 36 39 39 35 31 33 36
24 23 23 24 24 23 22 21 22 22 21 22 21 19 19 19 17 16 18 18 18 18 17 16 14 13 12 13 16 17 16 18 19 18 17 17 15 15 18 20 20 20 20 20 20 20 22 22 20 19 20 20 21 23 23 24 24 22 22 24 26 29 33 36 40 41 40 38 38 37 32 24 21 24 27 32 38 40 39 40 40 37 32 30 32
23 23 23 23 24 24 23 24 24 24 24 24 23 21 20 20 18 17 17 18 19 19 17 15 15 14 14 14 14 14 16 18 19 19 18 17 14 15 18 19 19 20 20 20 20 19 21 22 21 19 18 19 22 23 22 22 21 20 21 22 24 27 31 36 40 41 41 40 39 40 40 32 21 18 21 25 33 39 39 38 41 41 36 30 29
23 23 23 23 23 24 25 25 26 26 26 24 23 22 21 20 18 18 18 19 19 19 17 17 18 16 15 15 14 14 17 19 19 19 17 15 13 14 18 19 19 19 19 19 19 19 20 21 20 18 18 20 21 21 20 20 19 19 20 21 22 24 28 34 39 39 39 39 38 40 43 39 27 16 15 20 27 35 39 38 40 42 40 36 33
20 22 23 24 25 26 25 26 26 27 26 25 25 23 21 20 20 20 19 19 20 20 20 19 19 18 16 16 15 16 18 18 18 17 16 14 14 15 17 19 19 19 19 19 17 18 19 21 20 18 17 18 17 18 19 20 19 19 19 19 20 21 24 30 34 36 38 39 39 41 43 43 37 26 14 14 21 29 36 38 39 41 43 42 37
19 21 23 25 27 27 26 26 27 28 28 27 26 24 23 22 22 21 19 18 19 22 22 21 21 21 19 16 15 16 18 17 17 16 14 13 13 14 16 19 20 19 19 18 17 17 18 20 20 18 16 15 15 16 18 19 20 20 19 18 18 20 23 26 30 32 35 38 39 41 45 45 43 37 22 13 18 24 30 34 37 39 42 43 41
17 20 23 25 27 27 26 26 26 27 28 27 26 24 23 22 21 21 21 21 20 23 25 25 25 24 21 17 14 15 17 16 16 15 14 13 13 14 17 20 20 20 19 17 16 16 18 19 20 17 14 14 15 14 15 17 19 20 19 17 17 19 22 25 27 29 33 37 39 41 44 46 46 43 33 18 19 25 28 30 32 34 38 40 42
15 17 21 23 24 25 26 27 27 27 28 27 27 25 24 22 21 20 22 22 22 23 26 28 28 24 20 17 15 15 15 15 14 13 14 14 14 17 20 21 19 18 18 15 14 15 16 18 17 14 12 13 15 15 14 16 17 18 19 17 16 18 22 24 26 28 31 34 37 40 43 45 47 47 39 20 16 25 29 30 29 28 30 33 37
14 16 19 21 23 25 28 30 31 30 28 27 27 27 24 22 22 21 22 24 24 23 25 28 28 24 19 16 15 15 15 13 12 13 15 16 18 21 22 19 17 17 15 14 14 15 15 15 13 10 10 12 14 15 15 15 15 17 18 16 15 17 19 21 24 27 29 32 36 39 41 43 47 49 43 25 8 16 26 31 31 29 29 29 32
15 17 19 20 23 25 27 29 30 28 25 23 23 22 21 20 21 21 22 24 23 23 25 27 25 20 17 15 15 16 13 10 10 13 16 18 21 22 21 18 16 15 14 14 14 14 13 12 9 9 10 12 13 14 16 17 16 17 17 17 17 17 18 19 20 23 26 29 34 38 40 42 45 49 50 40 22 2 20 30 32 32 32 32 32
16 19 20 20 21 23 24 26 28 25 22 21 20 19 19 20 21 21 23 25 25 24 25 25 22 18 16 14 12 11 9 8 11 15 18 20 22 22 19 17 14 13 13 14 13 12 12 10 9 10 11 11 12 12 14 16 17 18 18 17 18 19 20 20 20 19 21 25 30 36 41 43 43 46 50 51 42 22 3 23 31 33 34 35 34
14 17 18 18 19 21 22 23 24 24 22 22 23 23 22 22 22 22 22 23 23 23 23 22 20 17 15 13 11 11 11 12 16 19 20 21 21 19 16 15 13 11 11 12 12 11 10 8 10 10 9 9 11 11 12 14 16 18 18 17 18 19 22 23 22 19 19 22 26 32 39 43 43 42 45 50 50 43 27 4 19 33 36 33 32
14 15 16 16 17 18 19 20 20 21 21 20 21 22 21 21 21 21 20 20 21 22 22 21 21 19 17 16 15 16 17 18 18 20 20 19 19 17 15 13 12 11 11 10 9 9 9 8 9 9 8 9 12 12 13 14 16 17 17 17 19 20 22 24 24 22 20 21 22 27 34 40 42 40 42 47 48 47 45 34 13 13 24 28 32
15 14 13 14 15 17 19 19 19 18 17 17 18 17 18 21 21 20 21 22 23 22 21 21 22 23 21 18 18 19 19 18 17 17 18 17 16 15 13 12 12 11 9 7 7 8 8 7 7 8 8 8 10 11 12 13 15 17 17 18 19 21 22 23 24 23 21 19 20 24 29 35 40 39 39 43 45 44 45 45 39 28 16 12 18
13 12 12 13 15 16 18 19 18 15 12 14 16 15 16 19 18 17 20 24 24 23 22 22 22 23 22 20 18 18 19 18 17 16 16 15 13 12 11 11 11 9 5 5 8 8 7 7 8 8 7 8 9 10 12 12 14 16 17 18 20 21 22 23 23 23 21 18 18 21 25 29 34 37 37 39 42 42 43 43 43 42 37 31 27
11 11 12 13 14 16 17 17 16 14 12 13 15 15 15 15 14 14 18 22 24 24 24 23 21 20 20 18 17 17 17 17 16 15 14 12 11 10 9 8 10 9 5 5 7 7 6 7 8 7 7 8 10 11 12 12 13 15 16 18 20 20 21 21 21 22 22 20 18 18 20 24 28 30 34 37 38 39 40 40 39 39 39 39 39
12 12 13 13 15 16 16 15 14 15 16 16 15 14 12 11 12 13 16 19 21 21 20 19 19 18 17 17 17 16 16 16 15 13 12 11 9 7 6 7 8 8 7 6 5 5 5 6 7 7 8 8 9 10 12 12 13 15 16 18 19 19 19 19 20 20 22 23 21 18 18 20 22 25 27 30 33 35 36 35 34 36 39 41 41
13 12 12 12 14 14 14 13 13 14 15 14 13 12 10 9 11 12 13 15 16 16 15 14 14 14 14 15 15 14 13 13 13 12 11 10 7 4 2 4 5 5 4 3 2 3 5 5 6 7 8 9 9 9 10 12 13 14 16 16 17 18 17 17 18 18 19 22 23 21 18 18 19 21 22 23 26 29 31 31 30 32 34 37 40
10 9 9 12 13 14 14 14 14 14 12 11 12 12 11 11 12 12 12 13 13 13 13 11 9 9 10 10 9 8 6 6 8 9 10 7 3 1 1 2 4 2 1 2 3 4 5 5 5 6 6 8 8 8 8 10 11 12 13 13 15 16 16 16 16 16 17 18 20 21 20 19 18 18 19 20 19 20 23 25 26 27 29 31 33
7 8 12 14 15 15 15 14 14 13 11 11 14 14 12 12 12 12 12 12 11 11 11 8 6 8 10 8 6 4 3 6 7 10 11 5 1 1 2 2 2 1 2 2 3 5 4 3 3 3 4 5 6 7 7 8 9 11 12 13 13 14 14 14 15 15 15 15 16 18 19 19 18 18 19 20 18 16 18 21 22 23 24 25 26
9 11 13 14 14 15 15 15 15 15 15 15 16 13 9 8 8 8 8 9 11 12 11 9 9 10 10 8 6 4 5 6 6 8 8 5 1 2 5 4 2 2 2 1 2 5 5 3 2 2 3 4 6 7 8 9 9 10 11 12 13 13 13 13 14 15 15 15 15 15 16 17 17 17 19 21 21 18 17 17 18 19 20 21 21
9 11 12 13 12 11 11 12 13 14 15 15 14 10 8 8 6 4 4 5 9 11 11 10 9 8 8 8 7 7 8 5 2 1 3 6 4 2 4 5 4 4 3 1 2 3 3 3 2 2 3 4 5 7 8 8 9 9 10 11 12 12 13 13 14 15 15 16 15 15 15 15 15 15 16 19 21 19 16 14 14 14 16 18 19
10 12 12 12 10 8 7 9 11 10 11 12 10 7 9 8 5 3 4 5 7 9 10 9 8 9 11 11 12 12 10 5 4 6 7 5 4 4 1 2 3 3 3 3 1 1 1 2 2 3 4 4 5 6 7 8 8 8 9 10 11 12 12 12 12 13 13 14 14 15 15 15 15 14 14 16 18 18 16 14 13 12 11 12 13
12 14 13 13 11 9 7 8 8 7 8 9 8 7 7 6 5 5 5 4 2 4 7 8 9 10 12 13 12 11 10 8 7 6 3 2 4 5 3 0 0 1 1 1 1 1 1 2 1 2 3 4 5 6 7 8 9 10 10 10 11 11 11 10 10 10 10 11 12 13 14 14 15 15 15 15 16 16 16 15 14 12 10 9 9
10 11 11 10 8 5 4 4 5 4 4 6 7 6 5 4 2 3 4 3 0 3 7 9 10 11 14 14 9 9 11 9 7 4 1 1 4 5 2 1 2 3 3 2 1 2 2 1 0 1 3 5 6 7 8 9 11 11 11 11 11 10 10 9 9 8 8 8 9 10 11 12 13 14 14 14 14 15 15 15 15 14 12 10 9
7 7 7 5 3 2 3 3 3 1 1 2 3 3 3 3 4 4 4 4 3 4 6 8 10 13 15 14 8 9 11 7 4 4 3 3 5 4 1 0 2 3 3 2 1 2 1 0 1 2 3 5 6 7 8 9 10 11 10 9 10 9 9 9 9 8 7 7 8 9 10 11 12 12 12 12 12 13 13 13 14 14 14 12 10
3 4 4 2 1 2 3 3 2 3 3 3 2 3 3 3 4 6 7 8 9 8 6 6 10 13 14 11 5 6 7 4 3 3 3 3 3 2 1 2 2 2 3 4 3 2 2 2 3 4 4 5 6 7 7 7 7 8 8 8 9 9 9 9 9 9 9 8 8 9 11 12 13 13 13 12 12 11 12 12 13 13 13 13 12
3 2 2 2 2 2 2 2 2 2 3 2 2 3 4 5 7 8 9 9 8 8 7 7 8 9 8 4 1 3 3 2 3 3 3 3 3 1 1 1 2 2 1 4 6 5 2 1 3 4 4 4 5 6 6 6 6 7 8 9 9 10 10 10 10 10 10 9 8 11 13 14 14 14 14 14 14 13 12 12 13 13 13 12 12
2 2 1 2 3 2 2 3 2 1 0 1 2 4 4 4 5 6 6 5 5 5 6 7 6 6 5 4 4 3 3 2 4 4 3 4 4 1 3 3 1 1 3 4 4 5 3 1 2 2 2 2 3 3 5 6 7 8 8 9 10 10 11 11 10 10 10 9 8 10 13 14 14 13 13 14 15 15 14 13 14 15 15 13 11
2 2 1 2 4 4 5 6 5 4 3 4 5 6 6 5 6 6 6 7 6 6 7 7 7 7 6 5 4 4 2 2 3 4 3 3 5 3 2 2 3 4 5 4 2 1 2 2 2 2 2 2 2 3 5 6 7 8 8 8 9 9 9 9 9 9 10 9 8 9 12 13 13 13 13 13 14 15 15 15 17 18 17 15 13
1 2 3 4 4 5 6 6 6 6 6 6 7 7 6 7 7 7 8 8 8 8 8 7 7 7 7 5 5 5 2 2 3 3 3 2 4 6 6 7 7 4 3 3 2 2 2 2 1 2 3 4 4 4 6 6 6 6 7 6 7 8 8 8 8 8 9 8 8 8 10 11 11 12 11 12 13 14 15 16 18 18 18 17 16
3 3 5 6 5 6 8 8 8 6 5 8 9 8 7 7 7 7 8 9 8 7 7 7 7 8 7 6 6 6 5 5 5 5 4 4 5 6 7 9 7 5 3 2 1 1 1 1 1 2 3 3 6 5 6 5 5 5 5 5 5 6 6 7 7 7 7 7 7 6 8 9 9 10 10 10 10 11 13 15 17 16 16 17 17
7 7 8 9 8 9 10 11 11 9 9 10 11 9 7 7 8 8 8 8 8 7 7 8 8 8 8 7 7 6 6 6 6 5 5 6 6 6 7 5 5 6 5 4 2 1 2 2 3 3 3 3 6 7 6 6 6 5 5 4 5 5 5 5 5 5 6 7 6 6 7 7 7 8 8 8 8 9 10 13 15 15 14 15 16
7 7 8 9 10 11 11 11 11 10 9 10 11 9 7 8 9 10 9 9 9 9 8 8 8 8 8 8 8 7 6 6 6 6 6 7 7 7 6 4 5 6 4 3 2 1 1 0 1 2 3 3 8 10 8 7 8 8 7 6 5 4 4 4 4 4 4 5 5 5 6 6 6 7 7 7 7 7 8 10 12 13 12 13 14
Wind_Direction
213 223 235 243 246 252 258 265 274 282 287 292 295 294 301 326 336 326 319 314 315 315 309 304 306 313 315 310 304 300 302 306 309 309 308 309 313 315 315 317 319 322 327 329 327 320 316 326 335 336 336 338 341 343 342 338 328 319 314 313 308 301 294 289 286 285 282 277 274 272 267 261 255 253 254 257 258 257 256 253 246 239 238 241 244
214 222 232 239 247 253 253 254 263 271 274 278 283 292 315 337 326 311 307 306 307 308 305 305 309 314 317 317 314 304 298 302 305 305 308 309 312 316 314 314 316 318 322 324 323 316 310 320 334 335 333 336 341 344 345 342 335 327 324 320 315 307 296 288 285 285 284 279 276 274 270 264 257 254 252 252 255 257 256 254 247 241 241 241 242
221 233 234 231 236 247 247 247 253 257 266 284 293 285 295 311 307 300 296 288 289 299 304 308 313 318 316 314 317 312 300 297 298 300 303 306 311 317 315 312 313 315 318 318 317 313 308 316 329 328 325 334 342 346 347 343 338 336 336 334 328 320 311 299 288 285 285 282 278 275 272 267 261 257 256 254 253 254 255 255 251 247 246 242 240
227 239 239 237 242 249 251 253 255 252 256 274 283 273 280 296 290 279 279 284 296 306 309 308 312 316 310 305 311 313 304 295 295 298 301 304 309 312 312 311 310 311 315 314 312 310 308 312 318 316 319 331 343 350 351 347 341 339 341 342 339 332 325 313 297 286 284 283 279 275 273 270 264 260 258 258 255 251 251 253 254 253 252 246 243
217 231 238 243 247 249 254 256 251 252 254 252 256 262 267 270 268 274 294 302 303 302 297 296 302 304 300 298 304 309 307 299 298 299 298 300 303 303 304 305 303 305 309 309 306 306 309 308 306 308 313 326 341 349 352 349 344 342 341 342 341 338 333 325 307 289 281 280 279 276 273 271 268 263 256 253 253 251 248 248 250 251 252 249 247
201 218 225 222 227 234 249 257 242 235 245 252 259 264 265 267 269 278 284 279 277 282 287 294 299 298 296 297 299 303 306 303 302 301 297 298 303 306 308 305 302 303 304 303 302 303 306 302 298 302 307 316 333 344 349 348 345 343 341 340 340 338 337 333 318 295 281 278 278 277 273 271 269 265 257 251 249 248 248 248 247 246 247 248 247
193 207 209 207 218 225 234 248 242 230 236 251 264 267 267 269 271 270 269 269 276 287 295 299 299 295 290 288 290 298 302 301 301 302 301 303 309 314 315 311 308 307 304 304 303 302 302 297 292 294 298 308 325 337 344 347 344 343 342 341 340 337 336 337 327 306 290 283 279 276 272 269 268 264 259 255 249 247 248 248 247 246 248 248 247
200 208 206 205 218 224 225 233 236 240 249 259 268 271 272 276 280 282 284 287 290 292 295 295 292 289 285 283 289 299 302 299 300 302 303 308 312 314 315 314 312 309 305 304 303 301 301 298 292 290 292 303 318 324 333 343 343 341 341 340 339 336 334 335 331 318 304 293 283 277 271 269 269 265 259 255 252 249 248 247 247 250 252 252 248
214 218 216 212 221 230 235 237 238 251 268 278 282 284 287 289 290 292 293 293 289 287 289 292 294 297 296 296 300 304 300 298 301 302 302 307 312 315 317 317 315 311 306 304 304 303 303 300 295 290 291 303 315 315 319 329 334 335 336 336 336 334 333 333 330 323 316 304 291 282 274 269 270 268 262 256 253 251 249 247 248 250 252 252 251
217 221 222 221 223 230 236 240 245 257 269 279 285 287 289 287 287 290 292 290 285 286 292 296 300 304 304 302 301 299 299 300 303 304 303 306 311 316 319 319 319 316 312 308 307 307 307 303 300 295 294 305 316 317 316 319 322 326 329 331 331 332 332 333 331 325 317 306 296 288 278 270 268 269 266 259 252 250 249 248 248 249 248 249 251
221 221 223 224 223 228 234 237 247 258 266 277 283 285 285 282 284 289 292 290 289 293 298 295 295 300 303 305 303 300 300 300 300 302 304 308 312 315 318 320 322 321 317 312 309 310 311 309 305 301 298 305 316 319 318 318 319 322 326 328 328 329 331 333 332 328 317 306 299 294 284 273 268 268 267 261 254 250 250 249 246 246 245 244 245
224 222 222 224 222 226 232 236 244 253 262 274 277 278 277 277 281 287 290 291 292 291 289 289 294 303 307 307 303 300 302 304 305 306 307 308 310 313 316 319 322 324 321 316 313 313 314 312 308 303 300 306 315 319 320 321 320 321 327 331 328 325 330 334 333 328 318 309 305 301 294 283 273 268 264 262 257 251 250 250 248 245 244 242 241
222 220 220 223 225 228 232 237 242 248 259 269 268 269 272 273 278 283 285 286 286 286 289 291 294 298 301 299 298 301 307 309 309 309 308 306 308 312 316 318 322 325 323 319 315 313 314 315 313 309 305 308 316 320 321 321 320 321 327 332 329 325 329 333 333 329 320 310 305 303 301 293 280 271 265 261 259 253 248 248 248 246 243 241 240
220 224 224 223 227 231 233 237 241 244 254 261 260 263 268 271 274 278 279 278 278 282 286 285 287 293 298 298 298 302 303 299 298 299 301 304 309 314 317 318 320 323 324 324 322 319 319 317 317 318 316 314 319 323 323 321 320 321 326 330 328 327 330 333 334 333 328 317 306 302 301 296 282 271 265 261 257 254 247 244 245 246 245 244 244
218 226 227 227 233 235 236 241 242 244 250 255 258 260 262 266 272 276 277 272 269 273 277 280 287 295 298 294 292 292 290 291 294 295 295 300 308 313 316 316 317 319 324 329 328 325 324 322 320 322 322 321 324 326 324 322 322 323 325 328 329 332 337 338 337 335 332 325 316 308 301 295 282 268 261 257 253 252 248 243 245 247 245 245 246
215 224 228 233 238 238 240 242 242 245 247 249 254 258 257 261 269 275 275 269 267 271 277 284 292 295 292 288 283 280 282 289 297 299 298 298 301 307 312 313 313 317 321 324 326 329 332 331 326 325 325 325 326 328 327 326 325 324 324 328 334 339 344 345 343 339 332 326 323 316 303 293 282 268 257 250 244 244 246 244 244 245 242 240 241
217 223 231 239 242 241 243 241 241 245 246 245 250 254 253 257 264 269 268 265 266 271 277 284 288 288 286 281 278 281 288 294 298 301 302 299 297 303 310 310 309 312 315 319 325 332 335 332 327 325 327 327 329 332 331 328 326 325 325 331 340 344 346 347 347 345 338 332 333 328 311 293 283 271 258 248 238 233 237 242 244 246 244 239 238
226 231 238 242 241 242 242 240 240 243 243 243 246 248 250 255 261 264 263 262 262 264 270 276 278 279 280 278 282 290 293 293 295 299 301 299 296 302 308 307 305 307 311 317 323 327 330 331 330 325 324 327 331 333 332 329 327 325 327 337 344 345 345 346 347 347 346 346 347 341 325 304 290 278 263 249 238 230 230 235 240 244 241 234 233
236 244 249 246 242 242 240 237 238 238 237 241 245 247 250 252 255 257 257 258 258 261 269 276 279 278 275 278 288 294 293 294 298 301 299 295 294 302 306 305 304 306 310 314 317 321 325 331 333 325 321 326 332 333 331 328 326 326 330 337 343 345 347 349 349 349 349 352 354 351 343 331 309 290 273 253 238 231 229 230 233 235 233 228 228
243 249 250 247 246 244 240 236 236 236 236 237 242 247 250 251 251 251 251 253 258 265 273 278 278 276 273 279 286 286 288 297 301 301 298 293 291 300 307 307 306 307 310 311 313 317 323 329 331 325 324 332 333 330 330 329 326 328 331 336 339 342 346 352 354 353 352 353 356 356 353 349 334 303 284 263 241 230 227 228 228 229 229 229 229
248 247 244 242 244 245 243 239 236 237 238 237 240 246 249 251 251 248 247 250 256 265 272 271 268 267 272 280 282 279 287 299 304 303 301 295 294 304 311 311 310 310 311 310 310 315 320 325 328 327 329 333 331 327 329 329 327 328 329 334 338 338 344 354 357 355 355 357 358 358 358 357 351 330 295 271 250 234 228 227 227 226 228 230 231
253 252 248 244 242 243 243 238 234 236 237 238 241 244 244 244 245 246 250 253 255 259 266 268 265 264 271 281 283 285 293 299 302 303 301 297 299 307 310 310 311 312 312 310 311 314 318 323 328 330 331 332 327 326 329 330 329 328 326 330 337 337 344 355 357 356 358 0 0 1 2 1 358 348 316 267 251 241 235 231 229 227 228 229 231
256 259 257 251 246 244 243 241 238 237 238 240 242 242 242 243 247 250 251 251 258 263 265 266 265 265 269 276 280 285 292 297 300 303 301 295 294 298 302 307 310 311 311 312 314 314 315 321 328 331 332 328 321 323 329 329 328 327 323 324 334 338 342 350 357 360 3 4 3 4 5 4 2 356 339 281 241 235 236 236 234 231 230 231 232
262 260 259 256 251 247 244 241 241 242 243 244 242 238 238 241 247 252 251 250 258 265 264 263 264 266 270 275 277 280 287 294 298 297 293 287 285 291 301 307 307 306 308 312 313 310 311 320 328 331 331 327 325 329 333 327 326 330 328 323 329 338 341 347 357 3 5 6 6 6 7 7 6 3 354 316 249 229 227 231 234 234 233 233 234
272 261 261 260 254 251 246 242 243 246 247 245 240 234 234 237 242 251 257 257 262 267 265 262 261 264 269 272 273 274 280 287 291 289 287 287 289 298 306 309 306 303 305 308 307 305 309 319 327 330 331 332 335 340 337 329 331 339 338 330 330 339 344 351 0 5 7 8 8 7 9 10 9 9 6 343 264 235 226 223 225 229 231 233 234
284 268 267 262 256 254 252 248 249 247 244 244 241 235 234 241 250 258 261 262 268 275 271 263 259 262 266 266 266 270 273 276 276 276 284 293 299 303 308 309 305 302 304 303 300 301 311 321 328 334 340 341 341 337 332 334 343 346 344 341 341 341 344 354 2 6 10 13 11 9 11 14 14 15 15 9 313 236 226 224 223 222 222 225 227
289 281 278 269 262 264 266 267 266 260 255 256 253 242 240 250 261 264 260 261 268 272 266 257 253 256 259 259 262 265 264 259 260 271 285 297 302 306 310 313 309 305 304 302 299 303 312 319 326 337 347 346 339 332 331 336 345 347 346 348 349 344 344 353 358 2 11 17 15 12 12 14 18 21 21 21 22 285 219 221 223 222 219 218 220
285 286 285 278 269 269 272 275 274 269 263 264 266 264 262 263 264 261 259 263 267 263 254 248 248 251 255 257 259 258 254 253 265 278 290 300 305 309 313 316 314 310 307 307 307 309 314 324 337 350 356 347 334 333 337 337 340 346 347 349 352 350 349 351 351 355 10 20 20 17 15 14 18 24 25 25 28 32 195 214 221 225 223 217 214
278 283 288 286 280 278 276 273 274 275 273 269 269 272 271 268 263 256 252 256 255 248 246 247 247 247 247 244 243 248 255 265 276 285 295 303 307 310 314 318 319 315 314 314 314 313 321 344 354 355 359 347 332 338 348 343 344 350 352 353 357 357 358 359 355 357 14 25 24 24 21 16 17 23 27 27 29 33 38 72 212 221 225 222 215
277 282 287 288 288 289 286 283 285 289 286 276 272 270 265 262 262 259 257 256 251 249 253 253 245 241 240 243 253 265 272 277 283 289 297 302 305 309 317 323 325 325 324 324 327 331 345 2 359 351 358 353 340 346 356 354 354 358 0 2 5 5 8 9 3 4 18 26 25 28 29 23 17 20 27 29 29 32 35 41 66 189 213 219 218
291 291 289 287 289 291 291 294 299 302 293 275 270 272 269 265 266 268 272 273 267 262 261 253 243 245 253 263 271 274 277 282 286 290 296 300 304 313 322 328 334 338 338 351 10 10 7 8 355 345 354 356 349 355 4 5 6 7 6 9 12 11 12 13 7 7 17 26 25 29 35 32 24 21 24 29 30 31 34 39 48 60 83 143 182
301 296 288 289 293 294 296 298 299 302 290 265 262 272 275 272 271 271 271 271 269 266 263 256 250 254 263 272 276 275 278 285 288 290 297 300 305 319 331 339 348 354 2 30 31 25 20 13 352 340 354 8 7 8 12 14 16 14 11 12 15 15 17 17 13 10 15 23 27 30 37 41 36 27 23 27 31 32 33 38 44 47 53 68 84
303 294 287 287 288 287 290 292 290 288 284 277 279 283 276 270 275 274 265 264 266 266 266 264 264 267 271 275 279 279 283 287 290 293 299 303 313 330 345 357 6 15 34 44 28 18 19 13 355 351 16 28 21 16 16 17 18 15 12 12 13 13 16 20 19 15 15 17 23 31 37 42 44 38 28 25 30 33 32 35 40 43 47 55 63
300 292 290 291 290 287 289 293 292 288 288 292 298 295 279 267 270 271 266 266 268 269 269 270 272 275 276 276 278 280 282 285 288 292 299 308 319 337 357 11 19 28 44 53 38 19 12 5 357 6 18 17 12 10 8 6 10 9 5 6 8 8 10 15 18 18 18 18 20 28 36 38 42 46 40 30 30 35 34 31 34 39 43 47 52
292 292 292 290 290 289 287 286 283 283 286 291 297 300 295 281 271 268 266 267 270 274 276 275 274 275 275 275 277 280 283 287 290 291 300 315 326 332 9 45 54 54 52 46 15 357 358 351 349 2 8 5 4 4 358 356 2 3 1 360 2 3 7 13 15 16 19 21 20 24 31 35 37 44 49 44 38 39 38 33 31 36 41 43 46
290 292 283 274 273 276 277 277 275 276 282 288 290 293 296 292 286 279 269 260 264 275 279 275 269 266 268 274 276 278 294 315 318 316 321 332 345 298 233 139 113 96 352 320 334 355 9 3 351 354 5 7 6 4 2 2 3 3 5 6 7 7 11 15 15 14 17 22 23 22 26 32 35 37 43 46 46 47 45 37 30 32 39 43 46
269 266 264 264 266 270 274 277 278 276 278 285 287 286 288 289 288 280 265 250 247 257 261 254 241 244 253 261 262 271 338 360 356 351 348 352 79 54 326 264 211 243 290 315 4 15 18 12 3 8 17 20 21 23 24 22 18 17 21 23 22 20 17 15 16 17 18 22 26 26 25 29 35 38 38 38 40 50 55 45 33 30 35 41 46
261 261 266 269 274 280 283 284 282 277 274 280 286 284 276 270 266 256 244 229 219 224 232 230 225 234 250 265 273 301 339 351 8 14 0 339 317 27 10 349 311 308 325 344 51 43 24 358 354 41 38 31 35 40 39 36 31 26 25 26 27 26 22 19 19 22 23 22 24 29 31 29 30 35 40 37 34 39 50 51 41 34 33 33 39
278 276 278 280 283 289 291 288 285 278 271 275 282 272 246 242 250 245 228 215 211 215 218 219 225 243 267 279 283 289 300 315 7 26 303 304 313 354 36 29 16 13 12 31 134 104 45 344 340 33 30 27 36 42 44 42 36 29 22 20 19 18 19 19 18 18 22 24 23 26 34 36 32 31 38 40 35 32 38 46 46 41 36 31 32
275 271 276 284 290 291 287 288 292 288 275 273 276 257 236 237 244 229 207 208 217 218 217 225 250 274 284 285 283 277 268 246 211 232 251 282 317 308 313 40 26 17 14 12 60 115 299 311 1 28 26 26 27 25 23 21 16 12 9 7 5 4 6 11 11 10 12 18 20 23 30 38 39 35 35 41 42 37 36 40 44 46 48 44 38
265 264 273 284 288 285 284 291 299 296 275 260 253 246 244 251 256 237 213 197 200 218 228 246 268 281 292 299 291 268 241 207 193 218 249 317 314 295 290 343 108 140 111 40 32 37 270 278 334 19 19 21 16 6 360 356 351 349 351 352 352 353 353 355 358 2 2 4 10 17 23 31 38 37 35 39 45 44 41 42 43 46 53 61 58
263 271 279 283 283 282 283 286 294 299 277 254 249 251 250 233 191 167 158 135 100 258 257 271 285 293 305 312 294 238 216 208 203 201 179 239 254 259 274 294 229 203 191 194 171 152 177 221 269 355 0 4 359 350 347 345 341 341 342 344 345 348 351 351 352 355 359 1 5 10 17 25 32 34 34 37 42 43 43 42 42 44 47 53 59
258 273 274 265 261 255 246 252 260 253 234 242 242 235 214 173 150 148 152 158 182 230 262 285 292 292 301 310 288 224 211 214 214 200 184 199 229 247 275 165 211 221 231 246 207 148 154 274 323 335 343 347 345 342 342 340 337 338 344 351 356 358 2 5 2 360 4 11 16 19 21 24 26 26 27 31 35 38 39 39 40 41 42 43 47
249 273 275 257 227 215 215 215 204 196 203 211 202 190 183 175 186 206 214 206 200 207 239 277 287 289 297 307 294 219 207 203 190 190 188 187 200 213 216 222 244 274 297 305 315 3 50 12 334 329 341 346 344 344 345 345 347 353 3 13 15 17 22 25 22 20 21 23 30 37 35 30 26 25 25 26 27 27 28 31 33 35 37 40 43
225 227 220 193 185 186 179 171 188 211 208 201 209 218 216 215 223 231 235 231 224 223 233 254 274 284 288 291 190 179 207 210 186 184 188 192 192 171 66 18 3 31 7 305 310 332 26 44 307 320 342 359 354 349 355 9 17 21 27 31 28 29 34 35 33 33 33 29 33 43 42 33 27 27 29 29 29 28 26 27 28 28 29 34 40
191 169 156 168 177 184 166 160 178 246 302 182 229 257 255 245 255 267 264 252 245 237 234 239 244 239 226 203 188 202 220 196 182 188 191 194 201 201 36 38 41 207 221 255 298 327 335 292 280 312 347 20 21 5 9 27 35 33 32 34 34 33 35 37 39 39 36 28 29 44 45 36 28 30 33 33 33 34 36 37 35 32 29 30 34
190 172 190 184 193 210 205 190 202 242 255 226 240 267 271 255 259 272 267 258 259 258 248 240 233 228 224 217 213 218 200 140 178 220 243 208 186 174 139 166 215 250 263 256 244 271 288 294 331 1 10 30 53 49 36 34 39 39 33 31 33 34 33 34 39 42 38 28 30 48 52 40 29 29 34 37 37 38 40 44 42 35 31 32 34
185 200 219 222 227 232 226 225 241 258 252 239 247 263 265 255 255 259 260 263 268 263 248 236 231 231 231 226 221 222 212 150 182 223 264 243 175 165 182 202 206 220 263 268 248 228 213 193 143 57 24 1 7 41 52 39 32 38 36 26 26 31 29 25 27 39 42 32 29 44 54 45 34 30 30 34 39 40 40 43 41 33 29 33 37
265 257 243 241 244 238 236 255 278 279 247 235 236 231 226 241 259 263 260 261 264 254 238 232 235 234 228 220 212 201 189 180 178 182 201 204 188 196 221 221 199 176 182 214 239 314 33 52 57 69 56 358 335 358 33 34 20 24 27 19 17 26 26 15 10 23 37 32 23 36 51 48 40 36 32 30 37 42 42 43 40 30 25 31 36
264 264 251 243 243 239 239 255 272 271 252 243 240 231 228 245 260 264 261 257 252 244 235 232 233 231 224 216 208 197 190 191 189 184 184 183 189 223 249 230 171 171 197 209 199 130 65 41 13 20 34 339 310 326 357 7 358 357 2 4 7 14 22 17 3 5 22 23 15 29 52 52 43 42 38 30 30 39 42 42 38 30 25 29 32
271 270 260 254 255 252 247 249 256 258 256 256 257 259 265 266 260 258 258 252 245 244 240 231 227 228 226 217 206 196 188 185 183 182 186 191 200 225 247 232 184 183 191 179 160 155 128 46 337 30 40 316 295 307 330 340 335 334 337 343 350 356 4 12 8 7 17 13 5 19 42 44 36 39 43 37 31 38 47 45 36 28 26 30 32